www.pogodaiklimat.ru

Погода и климат >> Архив погоды >> Гана >> Акюс


ПОГОДА в Акюсе

  • Прогноз погоды в Акюсе
  • Монитор погоды в Акюсе

АРХИВ ПОГОДЫ в Акюсе

Время (UTC), дата Ветер
(напр.,м/с)
 
Видим.   Явления Облачность Т
(С)
Тd
(С)
f
(%)
Тe
(С)
Тes
(С)
Комфортность P
(гПа)
Po
(гПа)
Тmin
(С)
Tmax
(С)
R
(мм)
R24
(мм)
S
(см)
21 11.04 штиль 0 10 км 9/0 900 м
[Ac trans Ci fib]
+25.7 +24.8 95 +36 +36 очень
душно
1011.1 1008.9
00 12.04 штиль 0 10 км 9/0
[]
+26.4 +24.8 91 +38 +38 очень
душно
1009.8 1007.6
12 12.04 ЮЗ 3 12 км 9/3 450 м
[Cu med, cong Ac trans]
+32.8 +25.5 66 +48 +54 опасность
перегрева
1009.2 1007.1
15 12.04 ЮВ 2 16 км 9/1 400 м
[Cu hum Ac trans]
+33.8 +25.3 61 +48 +53 опасность
перегрева
1008.8 1006.7
18 12.04 ЮЗ 3 16 км 4/0
[Ci sp]
+31.1 +25.0 70 +45 +45 опасность
перегрева
1007.8 1005.7 +33.8
21 12.04 штиль 0 12 км ясно +28.5 +23.7 75 +39 +39 очень
душно
1010.9 1008.7
09 13.04 СЗ 1 14 км 9/0
[Ac trans]
+28.5 +23.7 75 +39 +45 очень
душно
1012.3 1010.1
12 13.04 З 1 16 км 9/0
[Cs]
+32.0 +23.9 62 +43 +66 опасность
перегрева
1010.8 1008.7
21 13.04 штиль 0 12 км 6/6 360 м
[Sc]
+28.5 +26.5 89 +44 +44 опасность
перегрева
1012.1 1009.9
00 14.04 штиль 0 12 км 3/0
[Ac trans]
+28.0 +26.0 89 +42 +42 опасность
перегрева
1011.3 1009.1
06 14.04 штиль 0 12 км 9/0
[Ac trans]
+26.6 +25.1 91 +38 +38 очень
душно
1011.5 1009.3 +26.6
09 14.04 ЮЗ 2 16 км 8/3 420 м
[Cu med, cong Ac trans]
+31.0 +25.1 71 +45 +50 опасность
перегрева
1012.8 1010.6
12 14.04 СЗ 2 16 км 5/5 480 м
[Cu med, cong]
+35.5 +24.8 54 +49 +60 опасность
перегрева
1011.1 1009.0
18 14.04 ЮВ 2 10 км гроза, ливневой дождь 9/8 360 м
[Cb cap Ac As]
+25.0 +24.3 96 +35 +35 очень
душно
1012.2 1010.0 +36.5 18
21 14.04 штиль 0 10 км гроза без осадков 9/5 300 м
[Cb cap Ac As]
+24.1 +23.1 94 +32 +32 очень
душно
1012.9 1010.7
06 15.04 штиль 0 12 км 9/0
[Ac trans]
+24.1 +23.5 96 +32 +32 очень
душно
1011.8 1009.6 +24.0 19
09 15.04 ЮЗ 2 14 км 9/6 360 м
[Cu Sc Ac trans Ci fib]
+26.9 +28.9 100 +42 +45 опасность
перегрева
1013.6 1011.4
12 15.04 ЮВ 2 16 км 9/6 400 м
[Cu Sc Ac trans Cs]
+32.0 +26.3 72 +48 +54 опасность
перегрева
1012.1 1009.9
15 15.04 ЮВ 2 16 км 8/6 450 м
[Cu med, cong Ci sp]
+33.8 +26.2 65 +50 +54 опасность
перегрева
1009.3 1007.2
18 15.04 ЮВ 2 14 км 8/0
[Ac trans Cs]
+30.4 +25.9 77 +45 +45 опасность
перегрева
1010.0 1007.8 +33.8
03 16.04 штиль 0 12 км 4/4 360 м
[Sc]
+26.0 +24.6 92 +37 +37 очень
душно
1011.3 1009.1
09 16.04 ЮЗ 1 14 км 8/8 480 м
[Cu med, cong]
+30.0 +28.0 89 +50 +52 опасность
перегрева
1013.8 1011.6
12 16.04 ЮВ 1 18 км 6/6 480 м
[Cu med, cong]
+33.6 +24.9 60 +47 +57 опасность
перегрева
1011.4 1009.3
15 16.04 Ю 1 18 км 6/6 480 м
[Cu med, cong]
+33.6 +24.8 60 +47 +52 опасность
перегрева
1009.9 1007.8
18 16.04 ЮВ 1 18 км 9/1 900 м
[Cb cap Cs]
+31.0 +24.4 68 +43 +43 опасность
перегрева
1009.9 1007.7 +34.4
21 16.04 ЮВ 1 12 км 8/0
[Cs]
+28.1 +25.7 87 +42 +42 опасность
перегрева
1012.5 1010.3
00 17.04 штиль 0 12 км 8/0
[Cs]
+27.8 +26.1 90 +42 +42 опасность
перегрева
1012.3 1010.1
03 17.04 штиль 0 12 км 9/0
[Cs]
+26.8 +25.6 93 +39 +39 очень
душно
1009.3 1007.1
06 17.04 ЮВ 2 12 км 9/0
[Cs]
+26.0 +24.9 94 +37 +37 очень
душно
1009.8 1007.6 +24.9
12 17.04 ЮЗ 2 16 км 6/6 450 м
[Cu med, cong Ci sp]
+34.1 +25.3 60 +48 +58 опасность
перегрева
1011.0 1008.9
15 17.04 ЮВ 2 16 км 5/3 450 м
[Cu med, cong Ci sp]
+34.5 +24.8 57 +48 +56 опасность
перегрева
1008.7 1006.6
21 17.04 штиль 0 12 км 9/0
[Cs]
+28.9 +26.3 86 +44 +44 опасность
перегрева
1011.6 1009.4
00 18.04 штиль 0 12 км 9/0
[Cs]
+28.0 +26.3 91 +43 +43 опасность
перегрева
1011.8 1009.6
03 18.04 штиль 0 12 км 9/0
[Cs]
+27.4 +25.9 92 +41 +41 опасность
перегрева
1009.2 1007.0
06 18.04 штиль 0 14 км 9/0
[Ac trans Cs]
+26.0 +24.8 93 +37 +37 очень
душно
1010.1 1007.9 +26.0
12 18.04 ЮЗ 1 14 км 9/4 400 м
[Cu hum Cs]
+34.9 +25.4 58 +49 +62 опасность
перегрева
1010.4 1008.3

 

Местоположение метеостанции Акюс (Гана): широта 6.10 долгота 0.12 высота над уровнем моря 19 м.

В архиве по умолчанию представлена погода в Акюсе за последнюю неделю. Архивные данные за месяц целиком и за предыдущие месяцы, начиная с января 2011 года, Вы можете получить, выбрав интересующий диапазон дат из раскрывающегося списка и нажав кнопку "Ввод!".


*Определитесь, кто Вы:
робот инопланетянин человек

Внимание! Время в таблицах - всемирное. Для получения местного времени необходимо прибавить поправку, которая равна 1 ч.

Смотрите также архив погоды в соседних городах и на ближайших метеорологических станциях:

Погода в Кофоридуа (Гана) (41 км)
Погода в Тема (Гана) (55 км)
Погода в Аккра (Гана) (64 км)
Погода в Ада (Гана) (67 км)
Погода в Хо (Гана) (68 км)
Погода в Акатзи (Гана) (75 км)
Погода в Абетифи (Гана) (115 км)
Погода в Аким Ода (Гана) (123 км)
Погода в Ломе (Того) (125 км)
Погода в Таблигбо (Того) (162 км)

Пояснения к столбцам:

Ветер - указаны скорость ветра в м/с - средняя за 10 мин, порывы в срок и между сроками (в фигурных скобках) и направление, откуда дует ветер: С - северный, СВ - северо-восточный, В - восточный, ЮВ - юго-восточный, Ю - южный, ЮЗ - юго-западный, З - западный, СЗ - северо-западный.
Видимость - горизонтальная дальность видимости в метрах или километрах. При видимости от 1 до 10 км при отсутствии осадков обычно наблюдается дымка, при ухудшении видимости до 1 км и менее - туман. В сухую погоду видимость может ухудшаться дымом, пылью или мглою.
Явления - указаны атмосферные явления, наблюдавшиеся в срок или в последний час перед сроком; фигурными скобками обозначены явления, наблюдавшиеся между сроками (за 1-3 часа до срока); квадратными скобками обозначены град или гололедные отложения с указанием их диаметра в мм.
Облачность - указаны через наклонную черту общая и нижняя облачность в баллах и высота нижней границы облаков в метрах; квадратными скобками обозначены формы облаков: Ci - перистые, Cs - перисто-слоистые, Cc - перисто-кучевые, Ac - высококучевые, As - высокослоистые, Sc - слоисто-кучевые, Ns - слоисто-дождевые, Cu - кучевые, Cb - кучево-дождевые. Подробнее классификацию облаков см. в Атласе облаков (PDF).
T - Температура воздуха - температура, измеренная на высоте 2 м над землей.
Td - Температура точки росы - температура, при понижении до которой содержащийся в воздухе водяной пар достигнет насыщения.
f - Относительная влажность воздуха - влажноcть воздуха, измеренная на высоте 2 м над землей.
Te - Эффективная температура - температура, которую ощущает одетый по сезону человек в тени. Характеристика душности погоды. При расчете учитывается влияние влажности воздуха и скорости ветра на теплоощущения человека.
Tes - Эффективная температура на солнце - температура, которую ощущает человек, с поправкой на солнечный нагрев. Характеристика знойности погоды. Зависит от высоты солнца над горизонтом, облачности и скорости ветра. Ночью, в пасмурную погоду, а также при ветре 12 м/с и более поправка равна нулю.
P - Атмосферное давление - приведенное к уровню моря атмосферное давление.
Po - Атмосферное давление - измеренное на уровне метеостанции атмосферное давление.
Tmin - Минимальная температура - минимум температуры воздуха на высоте 2 м над землей.
Tmax - Максимальная температура - максимум температуры воздуха на высоте 2 м над землей.
R - Количество осадков - Количество выпавших осадков за период времени, мм. При наведении курсора мыши на число - период времени, за который выпало указанное количество осадков.
R24 - Количество осадков - Количество выпавших осадков за 24 часа, мм.
S - Снежный покров - Высота снежного покрова, см. При наведении курсора мыши на число - состояние снежного покрова и степень покрытия местности в баллах.